Regional Weather Roundup
Issued by NWS

Home | Current Version | Previous Version | Graphics & Text | Print | Product List | Glossary On
Versions: 1 2 3 4 5 6 7 8 9 10 11 12 13 14 15 16 17 18 19 20 21 22 23 24 25 26 27 28 29 30 31 32 33 34 35 36 37 38 39 40 41 42 43 44 45 46 47 48 49 50
000
ASUS43 KLOT 050912
RWRIL

ILLINOIS REGIONAL WEATHER ROUNDUP
NATIONAL WEATHER SERVICE CHICAGO/ROMEOVILLE IL
400 AM CDT WED AUG 05 2015

NOTE: "FAIR" INDICATES FEW OR NO CLOUDS BELOW 12,000 FEET WITH NO
SIGNIFICANT WEATHER AND/OR OBSTRUCTIONS TO VISIBILITY.

* THESE STATIONS ARE NOT UNDER NWS QUALITY CONTROL. THEY ALSO MAY NOT
  REPORT WEATHER SUCH AS PRECIPITATION OR FOG.

ILZ001-002-007-009-015-016-024-051000-
NORTHWEST ILLINOIS

CITY           SKY/WX    TMP DP  RH WIND       PRES   REMARKS
MOLINE         CLEAR     63  60  90 CALM      30.02F
STERLING*      CLEAR     57  55  94 CALM      30.01F
SAVANNA*       CLEAR     56  54  94 NE3       30.04F
$$

ILZ003-004-008-010-011-017-018-051000-
NORTH CENTRAL ILLINOIS

CITY           SKY/WX    TMP DP  RH WIND       PRES   REMARKS
ROCKFORD       PTCLDY    58  55  90 CALM      30.06R
FREEPORT*      PTCLDY    52  50  94 SW3       30.07R
ROCHELLE*      PTCLDY    54  53  96 CALM      30.06R
DE KALB*       PTCLDY    57  55  92 CALM      30.06R
PERU*          CLEAR     63  59  85 CALM      30.04F
$$

ILZ005-006-012>014-019>023-051000-
NORTHEAST ILLINOIS

CITY           SKY/WX    TMP DP  RH WIND       PRES   REMARKS
CHICAGO-OHARE  PTCLDY    63  59  87 NW3       30.03R
CHICAGO-MIDWAY MOCLDY    68  59  73 SW3       30.03R
AURORA         PTCLDY    55  52  89 W3        30.05R
LANSING*       CLEAR     59  58  96 CALM      30.03S
JOLIET*        PTCLDY    59  58  98 CALM      30.04R
WAUKEGAN       CLEAR     61  58  90 W5        30.03R
DUPAGE AIRPORT PTCLDY    56  53  90 N7        30.04R
KANKAKEE*      CLEAR     60  59  95 CALM      30.05R
WHEELING       CLEAR     62  57  83 CALM      30.04S
MORRIS*        CLEAR     58  55  89 NW3       30.03S
ROMEOVILLE*    PTCLDY    60  57  91 S5        30.04R
NORTHERLY ISL    N/A     69  59  70 SW3         N/A
$$

LMZ740>746-051000-
SOUTHERN LAKE MICHIGAN

STATION/POSITION SKY/WX   TEMP    WIND        PRES    VSBY  WAVE
                          AIR SEA DIR/SP/G                  HT/PER
                          (F)     (DEG/KT/KT) (MB)    (MI)  (FT/S)
HARRISON CRIB              71     210/  6/  6   N/A
BURNHAM HARBOR             69     250/  2/  4   N/A
CALUMET HARBOR             68     200/  2/  3   N/A
BURNS HARBOR               67     180/  5/  5 1017.3S
MICHIGAN CITY              69     140/  6/  7   N/A
MICHIGAN CITY 6N           70 73  200/  4/  6   N/A           1
ST. JOSEPH                 71 74  260/  6/  6   N/A           0
$$

ILZ025>027-034>036-040-047-049-050-058-095>099-051000-
WEST-CENTRAL ILLINOIS

CITY           SKY/WX    TMP DP  RH WIND       PRES   REMARKS
QUINCY         CLEAR     68  63  84 E5        30.00S
GALESBURG*     PTCLDY    62  60  93 NE5       30.03F
MACOMB*        PTCLDY    62  62  99 CALM      30.04S FOG
JACKSONVILLE*  CLEAR     67  63  89 E6        30.01F
PITTSFIELD*    PTCLDY    68  64  86 E3        30.02R
$$

ILZ028>032-037-038-041>044-048-051>054-059>061-051000-
CENTRAL ILLINOIS

CITY           SKY/WX    TMP DP  RH WIND       PRES   REMARKS
PONTIAC        CLEAR     61  60  97 CALM      30.05S
BLOOMINGTON    CLEAR     67  62  84 NE5       30.06S
DECATUR        CLOUDY    67  63  87 CALM      30.04R
PEORIA         CLEAR     67  61  81 NE5       30.04S
LACON*         CLEAR     62  60  95 CALM      30.03S
LINCOLN*       CLEAR     65  63  91 CALM      30.04R
SPRINGFIELD    CLEAR     67  62  84 NE5       30.02F
TAYLORVILLE    CLEAR     63  63 100 CALM      30.02S
$$

ILZ033-039-045-046-055>057-062-063-051000-
EAST-CENTRAL ILLINOIS

CITY           SKY/WX    TMP DP  RH WIND       PRES   REMARKS
CHAMPAIGN      CLEAR     63  60  90 CALM      30.05R
DANVILLE*      CLEAR     59  58  97 CALM      30.03R
RANTOUL*       PTCLDY    64  62  90 CALM      30.05R
MATTOON        MOCLDY    67  62  84 CALM      30.03S
PARIS*         CLEAR     60  60  99 CALM      30.04S
$$

ILZ079-100>102-051000-
SOUTHWEST ILLINOIS

CITY           SKY/WX    TMP DP  RH WIND       PRES   REMARKS
ALTON          PTCLDY    69  66  88 E6        30.00F
BELLEVILLE     PTCLDY    72  72 100 NE6       29.98S
CAHOKIA*       PTCLDY    74  68  81 NE6       29.98F
SPARTA*        PTCLDY    70  69  96 CALM      30.00R
$$

ILZ064>066-069>071-074>076-080>082-084>086-088>090-092>094-051000-
SOUTH-CENTRAL ILLINOIS

CITY           SKY/WX    TMP DP  RH WIND       PRES   REMARKS
CARBONDALE     PTCLDY    71  69  93 CALM      29.97F
CAIRO*         MOCLDY    73  72  96 CALM      29.96F
EFFINGHAM*     CLEAR     68  64  85 NE3       30.03S
MARION         PTCLDY    72  70  94 CALM      29.98F
MT. VERNON     MOCLDY    70  64  83 NE6       30.01S
CENTRALIA*     CLOUDY    72  67  85 NE3       30.01S
SALEM*         HVY RAIN  72  69  89 E6        30.01F
METROPOLIS*    PTCLDY    72  72 100 CALM      29.98F
$$

ILZ067-068-072-073-078-083-087-091-051000-
SOUTHEAST ILLINOIS

CITY           SKY/WX    TMP DP  RH WIND       PRES   REMARKS
LAWRENCEVILLE  CLEAR     67  66  97 SE5       30.03R
FLORA*         PTCLDY    69  67  94 CALM      30.03R
FAIRFIELD*     MOCLDY    69  69  99 N6        30.00S
HARRISBURG*    PTCLDY    70  70 100 CALM      30.00S
ROBINSON*      CLEAR     65  64  97 CALM      30.03F
CARMI*         PTCLDY    69  65  87 N5        30.00S FOG
$$

ABBREVIATIONS USED IN REMARKS
   TC - TEMPERATURE IN CELSIUS
  WCI - WIND CHILL INDEX
   HX - HEAT INDEX
  VSB - VISIBILITY
$$



USA.gov is the U.S. government's official web portal to all federal, state and local government web resources and services.